Content
SEND FEEDBACK

Daily
Averages
Monthly
Summary
United States of America

CHICAGO, ILLINOIS


Home > North America > United States > Illinois
Elevation: 674 feet     Latitude: 41 59N     Longitude: 087 54W

WEATHER
 
SELECT A DAY
Number of Records: 194,820;   Date Range: 7/8/95 - 7/23/14
 
SHARE

PRINT THIS DATA

[ ← Previous Day ]
WEATHER ALMANAC - APRIL 23, 2013
[ Next Day → ]
[ °C ]   °F
Weather ElementAverageHighLow
Temperature48.8 °F57.9 °F (9:52 am)39 °F (8:52 pm)
Dewpoint43.9 °F50 °F (12:33 pm)35.6 °F (9:34 pm)
Humidity84 %94 % (12:57 pm)55 % (1:52 am)
Barometer29.95 in30.03 in (1:52 am)29.91 in (12:52 pm)
Wind Speed7.8 mph13.8 mph (2:52 pm)
Weather ElementAverage
Visibility6.9 mi
Wind DirectionWSW (252.1 °)

Weather ElementTotal
Precipitation---
Heating Degree Days16.6 (Base 65)
Averaged from 29 records on April 23, 2013
WEATHER CONDITIONS BREAKOUT
WIND DIRECTION BREAKOUT
WEATHER BY HOUR - APRIL 23, 2013
[ °C ]   °F
Local TimeTemperatureDewpointHumidityBarometerVisibilityWind DirectionWind SpeedGust SpeedPrecipitationEventsConditions
1:52 AM55.0 °F39.0 °F55 %30.03 in10.0 miSSW (200°)5.8 mph
2:52 AM53.1 °F45.0 °F74 %30.00 in10.0 miSSE (150°)5.8 mph
3:52 AM54.0 °F46.0 °F75 %29.99 in10.0 miCalm
4:52 AM52.0 °F46.9 °F83 %29.96 in10.0 miSSE (160°)4.6 mph
5:52 AM54.0 °F46.9 °F77 %29.95 in10.0 miSouth (180°)10.4 mph
6:52 AM54.0 °F48.0 °F80 %29.96 in10.0 miSouth (180°)6.9 mphOvercast
7:52 AM54.0 °F48.9 °F83 %29.94 in10.0 miSouth (180°)3.5 mphMostly Cloudy
8:52 AM57.0 °F48.0 °F72 %29.95 in10.0 miSSW (200°)8.1 mphScattered Clouds
9:52 AM57.9 °F46.9 °F67 %29.93 in10.0 miSSW (210°)9.2 mphScattered Clouds
10:52 AM57.9 °F46.9 °F67 %29.92 in10.0 miSW (230°)6.9 mphScattered Clouds
11:52 AM55.0 °F48.9 °F80 %29.93 in6.0 miWNW (300°)11.5 mphRainLight Rain
12:33 PM53.6 °F50.0 °F88 %29.92 in2.5 miNW (310°)5.8 mph0.00 inRainLight Rain
12:52 PM53.1 °F50.0 °F89 %29.91 in2.0 miNNW (340°)8.1 mph0.00 inRainLight Rain
12:57 PM51.8 °F50.0 °F94 %29.91 in2.0 miNNW (330°)8.1 mph0.00 inRainLight Rain
1:28 PM51.8 °F50.0 °F94 %29.91 in1.8 miWNW (300°)8.1 mphRainLight Rain
1:35 PM51.8 °F48.2 °F88 %29.92 in2.0 miWNW (300°)9.2 mphRainRain
1:52 PM50.0 °F48.0 °F93 %29.93 in2.0 miWNW (300°)11.5 mphRainRain
2:52 PM46.9 °F44.1 °F90 %29.94 in2.5 miNW (310°)13.8 mphRainLight Rain
2:59 PM46.4 °F42.8 °F87 %29.93 in8.0 miNNW (330°)10.4 mphRainLight Rain
3:52 PM45.0 °F42.1 °F90 %29.92 in6.0 miNNW (330°)13.8 mphRainLight Rain
4:52 PM43.0 °F39.9 °F89 %29.93 in5.0 miNorth (350°)10.4 mphRainLight Rain
5:52 PM42.1 °F39.0 °F89 %29.95 in5.0 miNorth (350°)9.2 mphRainLight Rain
6:52 PM41.0 °F37.9 °F89 %29.97 in4.0 miNNW (340°)9.2 mphRainLight Rain
7:52 PM39.9 °F37.0 °F89 %29.97 in9.0 miNNW (340°)9.2 mphRainLight Rain
8:52 PM39.0 °F37.0 °F93 %29.97 in10.0 miNorth (360°)5.8 mphRainLight Rain
9:34 PM39.2 °F35.6 °F87 %29.96 in10.0 miNorth (360°)6.9 mph
9:52 PM39.0 °F37.0 °F93 %29.97 in8.0 miNorth (360°)8.1 mphRainLight Rain
10:52 PM39.0 °F37.0 °F93 %29.96 in5.0 miNorth (10°)5.8 mphRainLight Rain
11:52 PM39.9 °F37.0 °F89 %29.96 in8.0 miCalmRainLight Rain
Hourly data recorded from KPWK, located miles away from Chicago, Illinois







STORIES FROM OUR PARTNERS